This demonstration page uses our WeatherBlox Daily Observations layout. Learn more.

Left ArrowRight Arrow

Hourly Observations for September 8, 2017

Temp ( °F °C ) Dew Point ( °F °C ) Humidity (%) Winds ( mph kmh ) Pressure ( in mb ) Visibility ( mi km ) Precip ( " mm )
12:10 am 00:10 Clear 52 11 46 8 82 82 SW 5 7 30.15 1021 10 16.0934 N/A
12:29 am 00:29 Clear 52 11 46 8 82 82 SW 5 7 30.15 1021 10 16.0934 N/A
12:50 am 00:50 Clear 52 11 46 8 82 82 SW 5 7 30.15 1021 10 16.0934 N/A
1:10 am 01:10 Clear 52 11 46 8 82 82 SW 3 6 30.15 1021 10 16.0934 N/A
1:30 am 01:30 Clear 52 11 46 8 82 82 SW 3 6 30.15 1021 10 16.0934 N/A
1:50 am 01:50 Clear 52 11 46 8 82 82 SW 5 7 30.15 1021 10 16.0934 N/A
2:10 am 02:10 Clear 52 11 46 8 82 82 SW 5 7 30.15 1021 10 16.0934 N/A
2:30 am 02:30 Clear 52 11 46 8 82 82 WSW 6 9 30.15 1021 10 16.0934 N/A
2:50 am 02:50 Partly Cloudy 50 10 46 8 88 88 WSW 5 7 30.18 1022 10 16.0934 N/A
3:09 am 03:09 Clear 50 10 46 8 88 88 SW 5 7 30.18 1022 10 16.0934 N/A
3:30 am 03:30 Clear 50 10 46 8 88 88 Calm 30.18 1022 10 16.0934 N/A
3:50 am 03:50 Clear 48 9 46 8 94 94 SSW 3 6 30.18 1022 10 16.0934 N/A
4:10 am 04:10 Clear 48 9 46 8 94 94 Calm 30.18 1022 10 16.0934 N/A
4:30 am 04:30 Clear 48 9 46 8 94 94 Calm 30.18 1022 10 16.0934 N/A
4:50 am 04:50 Partly Cloudy 46 8 45 7 93 93 Calm 30.21 1023 10 16.0934 N/A
5:10 am 05:10 Partly Cloudy 48 9 46 8 94 94 Calm 30.18 1022 10 16.0934 N/A
5:30 am 05:30 Clear 45 7 45 7 100 100 Calm 30.21 1023 10 16.0934 N/A
5:50 am 05:50 Clear 45 7 45 7 100 100 Calm 30.21 1023 10 16.0934 N/A
6:10 am 06:10 Clear 45 7 45 7 100 100 Calm 30.21 1023 10 16.0934 N/A
6:30 am 06:30 Clear 45 7 45 7 100 100 Calm 30.21 1023 10 16.0934 N/A
6:50 am 06:50 Clear 45 7 45 7 100 100 Calm 30.21 1023 10 16.0934 N/A
7:10 am 07:10 Clear 45 7 45 7 100 100 S 5 7 30.21 1023 10 16.0934 N/A
7:30 am 07:30 Sunny 46 8 45 7 93 93 Calm 30.21 1023 10 16.0934 N/A
7:50 am 07:50 Sunny 46 8 45 7 93 93 S 5 7 30.21 1023 10 16.0934 N/A
8:10 am 08:10 Sunny 46 8 45 7 93 93 Calm 30.21 1023 10 16.0934 N/A
8:30 am 08:30 Sunny 48 9 46 8 94 94 S 5 7 30.21 1023 10 16.0934 N/A
8:50 am 08:50 Sunny 50 10 48 9 94 94 SSW 3 6 30.21 1023 10 16.0934 N/A
9:10 am 09:10 Sunny 54 12 50 10 88 88 Calm 30.21 1023 10 16.0934 N/A
9:30 am 09:30 Sunny 55 13 50 10 82 82 Calm 30.21 1023 10 16.0934 N/A
9:50 am 09:50 Sunny 55 13 52 11 88 88 Calm 30.21 1023 10 16.0934 N/A
10:10 am 10:10 Sunny 59 15 52 11 77 77 Calm 30.18 1022 10 16.0934 N/A
10:30 am 10:30 Sunny 61 16 52 11 72 72 Calm 30.21 1023 10 16.0934 N/A
10:50 am 10:50 Sunny 63 17 52 11 68 68 Calm 30.21 1023 10 16.0934 N/A
11:10 am 11:10 Sunny 64 18 52 11 64 64 Calm 30.21 1023 10 16.0934 N/A
11:30 am 11:30 Sunny 66 19 50 10 56 56 SW 3 6 30.21 1023 10 16.0934 N/A
11:50 am 11:50 Sunny 68 20 50 10 53 53 WSW 5 7 30.21 1023 10 16.0934 N/A
12:10 pm 12:10 Sunny 68 20 48 9 49 49 SW 3 6 30.21 1023 10 16.0934 N/A
12:29 pm 12:29 Sunny 70 21 46 8 43 43 W 5 7 30.21 1023 10 16.0934 N/A
12:50 pm 12:50 Sunny 72 22 46 8 41 41 W 6 9 30.21 1023 10 16.0934 N/A
1:10 pm 13:10 Sunny 72 22 46 8 41 41 NW 3 6 30.21 1023 10 16.0934 N/A
1:29 pm 13:29 Sunny 73 23 48 9 41 41 W 6 9 30.18 1022 10 16.0934 N/A
1:50 pm 13:50 Partly Cloudy 72 22 48 9 44 44 SW 6 9 30.21 1023 10 16.0934 N/A
2:10 pm 14:10 Partly Cloudy 73 23 48 9 41 41 W 5 7 30.18 1022 10 16.0934 N/A
2:29 pm 14:29 Partly Cloudy 75 24 50 10 41 41 WSW 3 6 30.18 1022 10 16.0934 N/A
2:50 pm 14:50 Partly Cloudy 75 24 50 10 41 41 Calm 30.18 1022 10 16.0934 N/A
3:10 pm 15:10 Sunny 73 23 48 9 41 41 Calm 30.18 1022 10 16.0934 N/A
3:29 pm 15:29 Partly Cloudy 75 24 48 9 39 39 Calm 30.15 1021 10 16.0934 N/A
3:50 pm 15:50 Partly Cloudy 77 25 48 9 36 36 W 3 6 30.15 1021 10 16.0934 N/A
4:10 pm 16:10 Partly Cloudy 75 24 48 9 39 39 Calm 30.15 1021 10 16.0934 N/A
4:29 pm 16:29 Partly Cloudy 77 25 48 9 36 36 Calm 30.15 1021 10 16.0934 N/A
4:50 pm 16:50 Partly Cloudy 75 24 48 9 39 39 Calm 30.15 1021 10 16.0934 N/A
5:10 pm 17:10 Sunny 75 24 46 8 36 36 Calm 30.15 1021 10 16.0934 N/A
5:29 pm 17:29 Sunny 77 25 48 9 36 36 Calm 30.15 1021 10 16.0934 N/A
5:50 pm 17:50 Sunny 77 25 48 9 36 36 NNW 6 9 30.15 1021 10 16.0934 N/A
6:10 pm 18:10 Mostly Cloudy 75 24 48 9 39 39 N 3 6 30.15 1021 10 16.0934 N/A
6:30 pm 18:30 Cloudy 73 23 50 10 44 44 NNW 3 6 30.15 1021 10 16.0934 N/A
6:50 pm 18:50 Mostly Cloudy 73 23 52 11 47 47 Calm 30.15 1021 10 16.0934 N/A
7:09 pm 19:09 Partly Cloudy 73 23 52 11 47 47 NNE 3 6 30.15 1021 10 16.0934 N/A
7:30 pm 19:30 Partly Cloudy 70 21 54 12 57 57 ENE 5 7 30.18 1022 10 16.0934 N/A
7:50 pm 19:50 Sunny 68 20 54 12 60 60 E 3 6 30.18 1022 10 16.0934 N/A
8:09 pm 20:09 Clear 64 18 55 13 73 73 E 5 7 30.18 1022 10 16.0934 N/A
8:30 pm 20:30 Partly Cloudy 63 17 55 13 77 77 Calm 30.18 1022 10 16.0934 N/A
8:50 pm 20:50 Mostly Cloudy 63 17 55 13 77 77 NE 5 7 30.18 1022 10 16.0934 N/A
9:09 pm 21:09 Partly Cloudy 61 16 54 12 77 77 NE 7 11 30.21 1023 10 16.0934 N/A
9:30 pm 21:30 Clear 59 15 52 11 77 77 ENE 5 7 30.21 1023 10 16.0934 N/A
9:50 pm 21:50 Clear 59 15 52 11 77 77 NE 6 9 30.21 1023 10 16.0934 N/A
10:10 pm 22:10 Partly Cloudy 57 14 52 11 82 82 ENE 5 7 30.24 1024 10 16.0934 N/A
10:30 pm 22:30 Clear 57 14 52 11 82 82 NE 5 7 30.21 1023 10 16.0934 N/A
10:50 pm 22:50 Clear 55 13 52 11 88 88 Calm 30.24 1024 10 16.0934 N/A
11:10 pm 23:10 Clear 55 13 52 11 88 88 NE 3 6 30.27 1025 10 16.0934 N/A
11:30 pm 23:30 Clear 55 13 52 11 88 88 Calm 30.27 1025 10 16.0934 N/A
11:50 pm 23:50 Mostly Cloudy 55 13 52 11 88 88 Calm 30.27 1025 10 16.0934 N/A

Powered by AerisWeather